Toyofukumaru — JD2177 — position and weather

sailwx.info

Track history (hours):
 
Tides and Currents Weather Stations Pressure Air Temp Water Temp Dewpoint Dewpoint Depression Visibility Wind Speed Wind Dir Waves Ship Positions

Toyofukumaru

Last reported at 2014-Jul-24 16:23 UTC. Time now 2014-Jul-24 16:57 UTC.
Position N 34°36' E 139°03'.

Length 165 m; draft 6.2 m.

Type: Cargo ship. MMSI: 431200688.

Date/timePositionNaut miles runAvg speedWind from/ knotsBaromVisibWave heightAir tempDewpointWater temp
2014-Jul-24 16:23N 34°36' E 139°03'1618.7
2014-Jul-24 15:31N 34°48' E 139°18'1718.1
2014-Jul-24 14:33N 34°60' E 139°33'1817.5
2014-Jul-24 13:33N 35°14' E 139°46'1211.5
2014-Jul-24 12:33N 35°23' E 139°39'0 0.1
2014-Jul-24 11:33N 35°23' E 139°39'0 0.0
2014-Jul-24 10:33N 35°23' E 139°39'0 0.0
2014-Jul-24 09:33N 35°23' E 139°39'0 0.0
2014-Jul-24 08:33N 35°23' E 139°39'0 0.0
2014-Jul-24 07:33N 35°23' E 139°39'2 1.9
2014-Jul-24 06:33N 35°23' E 139°41'1818.4
2014-Jul-24 05:33N 35°33' E 140°00'5 4.9
2014-Jul-24 04:33N 35°36' E 140°05'0 0.0
2014-Jul-24 03:33N 35°36' E 140°05'0 0.0
2014-Jul-24 02:27N 35°36' E 140°05'0 0.0
2014-Jul-24 01:33N 35°36' E 140°05'0 0.0
2014-Jul-24 00:27N 35°36' E 140°05'0 0.0
2014-Jul-23 23:33N 35°36' E 140°05'0 0.0
2014-Jul-23 22:33N 35°36' E 140°05'0 0.0
2014-Jul-23 21:33N 35°36' E 140°05'0 0.0
2014-Jul-23 20:28N 35°36' E 140°05'1011.1
2014-Jul-23 19:34N 35°31' E 139°55'1514.5
2014-Jul-23 18:34N 35°19' E 139°44'1514.5
2014-Jul-23 17:33N 35°04' E 139°45'2019.5
2014-Jul-23 16:33N 34°51' E 139°27'4920.1
2014-Jul-23 14:08N 34°30' E 138°34'181 6.6
2014-Jul-22 10:33N 33°59' E 134°59'1918.5
2014-Jul-22 09:33N 34°18' E 134°59'1817.7
2014-Jul-22 08:34N 34°35' E 135°03'1615.4
2014-Jul-22 07:30N 34°31' E 134°43'  
2014-Jul-19 23:16N 34°32' E 134°42'1419.0
2014-Jul-19 22:33N 34°37' E 134°58'1414.2
2014-Jul-19 21:33N 34°23' E 135°02'1919.4
2014-Jul-19 20:33N 34°04' E 135°00'215 7.6
2014-Jul-18 16:31N 34°45' E 139°15'1718.4
2014-Jul-18 15:33N 34°58' E 139°30'1919.2
2014-Jul-18 14:33N 35°12' E 139°46'1312.6
2014-Jul-18 13:34N 35°24' E 139°40'1 1.0
2014-Jul-18 12:32N 35°23' E 139°39'0 0.0
2014-Jul-18 11:32N 35°23' E 139°39'0 0.0
2014-Jul-18 10:32N 35°23' E 139°39'0 0.0
2014-Jul-18 09:32N 35°23' E 139°39'0 0.0
2014-Jul-18 08:32N 35°23' E 139°39'6 5.9
2014-Jul-18 07:33N 35°26' E 139°45'1918.6
2014-Jul-18 06:33N 35°36' E 140°05'1 0.7
2014-Jul-18 05:25N 35°36' E 140°06'0 0.0
2014-Jul-18 04:31N 35°36' E 140°06'0 0.0
2014-Jul-18 03:31N 35°36' E 140°06'0 0.0
2014-Jul-18 02:31N 35°36' E 140°06'0 0.0
2014-Jul-18 01:28N 35°36' E 140°06'0 0.0
2014-Jul-18 00:31N 35°36' E 140°06'0 0.0
2014-Jul-17 23:22N 35°36' E 140°06'0 0.0
2014-Jul-17 22:22N 35°36' E 140°06'0 0.0
2014-Jul-17 21:28N 35°36' E 140°06'0 0.0
2014-Jul-17 20:33N 35°36' E 140°06'1010.2
2014-Jul-17 19:33N 35°31' E 139°55'1413.8
2014-Jul-17 18:33N 35°20' E 139°44'1313.0
2014-Jul-17 17:33N 35°07' E 139°46'1918.7
2014-Jul-17 16:33N 34°53' E 139°31'233 7.5
2014-Jul-16 09:31N 33°54' E 134°58'1919.2
2014-Jul-16 08:34N 34°13' E 134°59'2019.6
2014-Jul-16 07:33N 34°32' E 135°03'1413.9
2014-Jul-16 06:32N 34°32' E 134°45'  
Track history (hours):
 
Tides and Currents Weather Stations Pressure Air Temp Water Temp Dewpoint Dewpoint Depression Visibility Wind Speed Wind Dir Waves Ship Positions

Toyofukumaru

Last reported at 2014-Jul-24 16:23 UTC. Time now 2014-Jul-24 16:57 UTC.
Position N 34°36' E 139°03'.

Length 165 m; draft 6.2 m.

Type: Cargo ship. MMSI: 431200688.

Date/timePositionNaut miles runAvg speedWind from/ knotsBaromVisibWave heightAir tempDewpointWater temp
2014-Jul-24 16:23N 34°36' E 139°03'1618.7
2014-Jul-24 15:31N 34°48' E 139°18'1718.1
2014-Jul-24 14:33N 34°60' E 139°33'1817.5
2014-Jul-24 13:33N 35°14' E 139°46'1211.5
2014-Jul-24 12:33N 35°23' E 139°39'0 0.1
2014-Jul-24 11:33N 35°23' E 139°39'0 0.0
2014-Jul-24 10:33N 35°23' E 139°39'0 0.0
2014-Jul-24 09:33N 35°23' E 139°39'0 0.0
2014-Jul-24 08:33N 35°23' E 139°39'0 0.0
2014-Jul-24 07:33N 35°23' E 139°39'2 1.9
2014-Jul-24 06:33N 35°23' E 139°41'1818.4
2014-Jul-24 05:33N 35°33' E 140°00'5 4.9
2014-Jul-24 04:33N 35°36' E 140°05'0 0.0
2014-Jul-24 03:33N 35°36' E 140°05'0 0.0
2014-Jul-24 02:27N 35°36' E 140°05'0 0.0
2014-Jul-24 01:33N 35°36' E 140°05'0 0.0
2014-Jul-24 00:27N 35°36' E 140°05'0 0.0
2014-Jul-23 23:33N 35°36' E 140°05'0 0.0
2014-Jul-23 22:33N 35°36' E 140°05'0 0.0
2014-Jul-23 21:33N 35°36' E 140°05'0 0.0
2014-Jul-23 20:28N 35°36' E 140°05'1011.1
2014-Jul-23 19:34N 35°31' E 139°55'1514.5
2014-Jul-23 18:34N 35°19' E 139°44'1514.5
2014-Jul-23 17:33N 35°04' E 139°45'2019.5
2014-Jul-23 16:33N 34°51' E 139°27'4920.1
2014-Jul-23 14:08N 34°30' E 138°34'181 6.6
2014-Jul-22 10:33N 33°59' E 134°59'1918.5
2014-Jul-22 09:33N 34°18' E 134°59'1817.7
2014-Jul-22 08:34N 34°35' E 135°03'1615.4
2014-Jul-22 07:30N 34°31' E 134°43'  
2014-Jul-19 23:16N 34°32' E 134°42'1419.0
2014-Jul-19 22:33N 34°37' E 134°58'1414.2
2014-Jul-19 21:33N 34°23' E 135°02'1919.4
2014-Jul-19 20:33N 34°04' E 135°00'215 7.6
2014-Jul-18 16:31N 34°45' E 139°15'1718.4
2014-Jul-18 15:33N 34°58' E 139°30'1919.2
2014-Jul-18 14:33N 35°12' E 139°46'1312.6
2014-Jul-18 13:34N 35°24' E 139°40'1 1.0
2014-Jul-18 12:32N 35°23' E 139°39'0 0.0
2014-Jul-18 11:32N 35°23' E 139°39'0 0.0
2014-Jul-18 10:32N 35°23' E 139°39'0 0.0
2014-Jul-18 09:32N 35°23' E 139°39'0 0.0
2014-Jul-18 08:32N 35°23' E 139°39'6 5.9
2014-Jul-18 07:33N 35°26' E 139°45'1918.6
2014-Jul-18 06:33N 35°36' E 140°05'1 0.7
2014-Jul-18 05:25N 35°36' E 140°06'0 0.0
2014-Jul-18 04:31N 35°36' E 140°06'0 0.0
2014-Jul-18 03:31N 35°36' E 140°06'0 0.0
2014-Jul-18 02:31N 35°36' E 140°06'0 0.0
2014-Jul-18 01:28N 35°36' E 140°06'0 0.0
2014-Jul-18 00:31N 35°36' E 140°06'0 0.0
2014-Jul-17 23:22N 35°36' E 140°06'0 0.0
2014-Jul-17 22:22N 35°36' E 140°06'0 0.0
2014-Jul-17 21:28N 35°36' E 140°06'0 0.0
2014-Jul-17 20:33N 35°36' E 140°06'1010.2
2014-Jul-17 19:33N 35°31' E 139°55'1413.8
2014-Jul-17 18:33N 35°20' E 139°44'1313.0
2014-Jul-17 17:33N 35°07' E 139°46'1918.7
2014-Jul-17 16:33N 34°53' E 139°31'233 7.5
2014-Jul-16 09:31N 33°54' E 134°58'1919.2
2014-Jul-16 08:34N 34°13' E 134°59'2019.6
2014-Jul-16 07:33N 34°32' E 135°03'1413.9
2014-Jul-16 06:32N 34°32' E 134°45'  

Dump ship's entire track history